Location: De Greiden
(52.9496°N, 5.9137°E)
Time: 22:56:31
(UTC+00:00)

USA 229 DEB - Pass Details

Date: 24 January 2021
Orbit: 965 x 1247 km, 63.4° (Epoch: 26 February)

Event Time Altitude Azimuth Distance (km) Brightness Sun altitude
Rises 16:39:13 0° 306° (NW) 3,867 7.1 -5.2°
Reaches altitude 10° 16:41:53 10° 312° (NW) 2,951 6.4 -5.6°
Maximum altitude 16:48:46 52° 28° (NNE) 1,400 4.1 -6.5°
Drops below altitude 10° 16:56:06 10° 104° (ESE) 3,137 5.7 -7.5°
Sets 16:59:02 0° 110° (ESE) 4,130 6.3 -7.9°
